Weather in Bolshoy Kukmor

Russia / Republic of Tatarstan     56°11′53″N   50°50′52″E
temp.,
°C
wind,
m/s
gust,
m/s
humid.,
%
clouds,
%
prec.,
mm/h
press.,
hPa
HPBL,
m
14 may, fri
fri1400:00+17se4126774 0.0 1023201
03:00+16sse4117251 0.3 1023195
06:00+18sse5136412 0.3 1023360
09:00+23s711435 0.3 1022703
12:00+26s7103847 0.0 10211094
15:00+26ssw6104067 0.0 10211521
18:00+22ssw385771 0.0 1020183
21:00+18ssw33669 0.0 102047
15 may, sat
sat1500:00+16ssw347344 0.0 102066
03:00+15s227638 0.0 102126
06:00+18s3767100 0.0 1020180
09:00+23s6944100 0.0 1020488
12:00+26ssw71037100 0.0 1020827
15:00+28ssw6113876 0.0 10191315
18:00+24ssw410525 0.0 1018260
21:00+19ssw414533 0.0 1018222
16 may, sun
sun1600:00+17ssw413574 0.0 1017200
03:00+16ssw412567 0.0 1018192
06:00+19ssw514555 0.0 1018312
09:00+24ssw712435 0.0 1017577
12:00+27ssw711368 0.0 10161052
15:00+28sw61139100 0.0 10161912
18:00+24ssw410541 0.0 1015291
21:00+19ssw41169100 0.0 1015192
17 may, mon
mon1700:00+17wsw337398 0.0 101628
03:00+16wsw2285100 0.0 101720
06:00+19wsw2281100 0.0 1017163
09:00+23wsw24625 0.0 1018846
12:00+26wsw584565 0.0 10171656
15:00+27w69411 0.0 10172027
18:00+24wnw36584 0.0 1017175
21:00+19wnw117597 1.0 101711
18 may, tue
tue1800:00+17sw0181100 0.9 101811
03:00+17s118212 1.3 101811
06:00+20s117282 0.0 1018107
09:00+25e015791 0.0 1018567
12:00+28w24396 0.0 10172051
15:00+29wnw34285 0.0 10173157
18:00+26nw0142100 0.0 101611
21:00+21ssw115489 0.0 101711